Flight Information

DEPARTURE
RAMONA, CA
Elevation:
1394
Runways:
9/27 - 5001x150 - ASPH-G
H1 - 340x66 - ASPH-CONC
ATIS:
132.025
Ground:
121.65
Tower:
119.875
DESTINATION
,
Elevation:
TPA:
1000 (est.)


6737.8 NM75° True-13° Var61° HDG

Flight Plan:
(click to file on line)

1. Type
2. Aircraft Identification
3. Aircraft Type / Special Equipment
4. True Airspeed
kts
5. Departure Airport
(ICAO code)
6. Arriving Airport
(ICAO code)
7. Cruising Altitude
ft
8. Alternate Airport
(ICAO code)
9. Route of Flight
10. Remarks


00:00:00 Departure ATIS: Destination ATIS:

Clearance Limit:
Route:
Altitude: Expect in minutes
Frequency:
Transponder: (7500 Hijack / 7600 Lost Comms / 7700 Emergency)


KRNM 221553Z 00000KT 6SM BR BKN018 05/04 A3003 RMK AO2 SLP171 T00500044
Time: 2021-01-22T15:53:00Z
1611333840
Winds: calm
Visibility: 6.0 sm
Clouds (AGL): BKN 1800
Temperature: 5.0 C
Dew Point: 4.4 C
Pressure: 30.029528 in Hgbr


Notes:

Data extracted from FAA Digital Chart Supplement. Effective: 0901Z Thursday, Dec 31, 2020 to 0901Z Thursday, Jan 28, 2021
Current ATIS data is provided courtisy of PilotEdge.